EWG8LQ EDDL-EGNT

Flight info

Callsign EWG8LQ
Flight time 1h 14m
Altitude 36000
Route SONEB6Z SONEB P64 TENLI L602 SPY DCT MIMVA L602 NALAX L46 RIMTO
Aircraft A320/M-SDE3FGHIRWY/LB1

Departure

Time 2026-05-07 16:54
Airport Düsseldorf Airport (EDDL)

Arrival

Time 2026-05-07 18:08
Airport Newcastle International Airport (EGNT)
Time Latitude Longitude Altitude Speed Heading
2026-05-07 16:24 51.28155 6.76737 131 ft 0 kts 276°
2026-05-07 16:44 51.28154 6.76747 130 ft 4 kts 277°
2026-05-07 16:44 51.28148 6.76788 128 ft 4 kts 296°
2026-05-07 16:45 51.28133 6.76818 129 ft 4 kts 348°
2026-05-07 16:45 51.28120 6.76819 126 ft 1 kts 17°
2026-05-07 16:45 51.28119 6.76818 126 ft 0 kts 17°
2026-05-07 16:49 51.28127 6.76822 125 ft 4 kts 17°
2026-05-07 16:49 51.28184 6.76841 129 ft 12 kts
2026-05-07 16:49 51.28277 6.76857 130 ft 16 kts
2026-05-07 16:50 51.28393 6.76846 122 ft 18 kts 327°
2026-05-07 16:50 51.28454 6.76710 126 ft 16 kts 253°
2026-05-07 16:50 51.28387 6.76563 123 ft 17 kts 232°
2026-05-07 16:50 51.28316 6.76414 123 ft 17 kts 233°
2026-05-07 16:51 51.28246 6.76267 126 ft 16 kts 233°
2026-05-07 16:51 51.28177 6.76120 129 ft 17 kts 232°
2026-05-07 16:51 51.28102 6.75965 124 ft 18 kts 232°
2026-05-07 16:51 51.28020 6.75796 130 ft 20 kts 233°
2026-05-07 16:52 51.27932 6.75610 127 ft 22 kts 232°
2026-05-07 16:52 51.27866 6.75470 122 ft 13 kts 233°
2026-05-07 16:52 51.27852 6.75343 125 ft 13 kts 309°
2026-05-07 16:52 51.27934 6.75273 122 ft 14 kts 336°
2026-05-07 16:53 51.27983 6.75255 121 ft 6 kts 15°
2026-05-07 16:53 51.28006 6.75292 121 ft 1 kts 52°
2026-05-07 16:53 51.28007 6.75295 121 ft 0 kts 52°
2026-05-07 16:53 51.28075 6.75436 123 ft 48 kts 52°
2026-05-07 16:54 51.28423 6.76166 129 ft 115 kts 53°
2026-05-07 16:54 51.28948 6.77265 138 ft 162 kts 51°
2026-05-07 16:54 51.29629 6.78673 841 ft 158 kts 51°
2026-05-07 16:54 51.30299 6.80083 1656 ft 164 kts 51°
2026-05-07 16:55 51.31023 6.81614 2088 ft 181 kts 51°
2026-05-07 16:55 51.31818 6.83295 2519 ft 198 kts 52°
2026-05-07 16:55 51.32690 6.85143 2905 ft 219 kts 51°
2026-05-07 16:55 51.33628 6.87137 3423 ft 238 kts 52°
2026-05-07 16:56 51.34776 6.89123 4107 ft 249 kts 38°
2026-05-07 16:56 51.35764 6.90175 4681 ft 253 kts 26°
2026-05-07 16:56 51.39800 6.91723 6725 ft 263 kts
2026-05-07 16:57 51.41612 6.92198 7591 ft 265 kts
2026-05-07 16:57 51.43441 6.92683 8492 ft 267 kts
2026-05-07 16:57 51.45276 6.93172 9419 ft 268 kts
2026-05-07 16:57 51.47126 6.93666 10263 ft 272 kts
2026-05-07 16:58 51.49069 6.94101 10591 ft 294 kts
2026-05-07 16:58 51.50486 6.94082 10770 ft 309 kts 355°
2026-05-07 16:58 51.52611 6.93539 11315 ft 319 kts 350°
2026-05-07 16:58 51.54849 6.92903 12018 ft 325 kts 350°
2026-05-07 16:59 51.57055 6.92287 12705 ft 330 kts 350°
2026-05-07 16:59 51.59335 6.91654 13428 ft 334 kts 350°
2026-05-07 16:59 51.61650 6.91009 14118 ft 339 kts 350°
2026-05-07 16:59 51.63988 6.90357 14747 ft 343 kts 349°
2026-05-07 17:00 51.66354 6.89698 15371 ft 347 kts 349°
2026-05-07 17:00 51.68741 6.89033 15979 ft 352 kts 349°
2026-05-07 17:00 51.71162 6.88349 16573 ft 356 kts 348°
2026-05-07 17:00 51.73609 6.87537 17171 ft 361 kts 346°
2026-05-07 17:01 51.76081 6.86608 17765 ft 366 kts 345°
2026-05-07 17:01 51.78568 6.85620 18350 ft 370 kts 344°
2026-05-07 17:01 51.81080 6.84607 18861 ft 374 kts 344°
2026-05-07 17:01 51.83625 6.83592 19416 ft 378 kts 344°
2026-05-07 17:02 51.86189 6.82591 19967 ft 381 kts 345°
2026-05-07 17:02 51.88776 6.81596 20523 ft 384 kts 345°
2026-05-07 17:02 51.91385 6.80602 20929 ft 387 kts 345°
2026-05-07 17:02 51.94017 6.79603 21614 ft 390 kts 345°
2026-05-07 17:03 51.96671 6.78593 22157 ft 393 kts 345°
2026-05-07 17:03 51.99285 6.77274 22684 ft 394 kts 335°
2026-05-07 17:03 52.01705 6.75187 23203 ft 395 kts 324°
2026-05-07 17:03 52.03841 6.72389 23697 ft 396 kts 313°
2026-05-07 17:04 52.05626 6.68976 24118 ft 397 kts 303°
2026-05-07 17:04 52.07220 6.65300 24529 ft 400 kts 303°
2026-05-07 17:04 52.08831 6.61596 24934 ft 402 kts 303°
2026-05-07 17:04 52.10455 6.57873 25328 ft 405 kts 303°
2026-05-07 17:05 52.12088 6.54122 25721 ft 408 kts 303°
2026-05-07 17:05 52.13729 6.50346 26097 ft 410 kts 303°
2026-05-07 17:05 52.15379 6.46539 26485 ft 412 kts 303°
2026-05-07 17:05 52.17033 6.42711 26848 ft 415 kts 303°
2026-05-07 17:06 52.18697 6.38856 27224 ft 417 kts 303°
2026-05-07 17:06 52.20370 6.34975 27599 ft 419 kts 303°
2026-05-07 17:06 52.22046 6.31077 27964 ft 421 kts 303°
2026-05-07 17:06 52.23713 6.27130 28319 ft 423 kts 300°
2026-05-07 17:07 52.25080 6.22885 28669 ft 423 kts 291°
2026-05-07 17:07 52.26098 6.18369 29012 ft 425 kts 288°
2026-05-07 17:07 52.27079 6.13815 29357 ft 426 kts 288°
2026-05-07 17:07 52.28067 6.09235 29687 ft 428 kts 288°
2026-05-07 17:08 52.29059 6.04642 30021 ft 430 kts 288°
2026-05-07 17:08 52.30056 6.00027 30299 ft 432 kts 288°
2026-05-07 17:08 52.31056 5.95391 30544 ft 434 kts 288°
2026-05-07 17:08 52.32057 5.90737 30785 ft 436 kts 288°
2026-05-07 17:09 52.33060 5.86054 31030 ft 437 kts 288°
2026-05-07 17:09 52.34065 5.81348 31240 ft 439 kts 288°
2026-05-07 17:09 52.35074 5.76621 31463 ft 441 kts 288°
2026-05-07 17:09 52.36082 5.71890 31775 ft 440 kts 288°
2026-05-07 17:10 52.37071 5.67224 32085 ft 440 kts 288°
2026-05-07 17:10 52.38069 5.62494 32399 ft 439 kts 288°
2026-05-07 17:10 52.39066 5.57767 32708 ft 439 kts 287°
2026-05-07 17:10 52.40059 5.53047 33019 ft 439 kts 287°
2026-05-07 17:11 52.41051 5.48321 33349 ft 438 kts 287°
2026-05-07 17:11 52.42038 5.43609 33675 ft 437 kts 287°
2026-05-07 17:11 52.43021 5.38900 34004 ft 436 kts 287°
2026-05-07 17:11 52.43970 5.34335 34280 ft 436 kts 287°
2026-05-07 17:12 52.44946 5.29631 34544 ft 435 kts 287°
2026-05-07 17:12 52.45917 5.24937 34799 ft 435 kts 287°
2026-05-07 17:12 52.46889 5.20243 35043 ft 435 kts 287°
2026-05-07 17:12 52.47861 5.15554 35274 ft 434 kts 287°
2026-05-07 17:13 52.48829 5.10861 35499 ft 434 kts 287°
2026-05-07 17:13 52.49795 5.06167 35730 ft 434 kts 287°
2026-05-07 17:13 52.50755 5.01481 35939 ft 434 kts 287°
2026-05-07 17:13 52.51711 4.96786 36063 ft 433 kts 287°
2026-05-07 17:14 52.53622 4.87466 36090 ft 430 kts 290°
2026-05-07 17:14 52.56474 4.78820 36092 ft 432 kts 300°
2026-05-07 17:15 52.59611 4.70405 36090 ft 431 kts 299°
2026-05-07 17:15 52.62730 4.61979 36098 ft 431 kts 299°
2026-05-07 17:16 52.65837 4.53541 36105 ft 431 kts 299°
2026-05-07 17:16 52.68942 4.45093 36107 ft 431 kts 299°
2026-05-07 17:17 52.72037 4.36644 36100 ft 431 kts 299°
2026-05-07 17:17 52.75122 4.28179 36104 ft 430 kts 299°
2026-05-07 17:18 52.78205 4.19707 36106 ft 430 kts 299°
2026-05-07 17:18 52.81263 4.11282 36104 ft 430 kts 298°
2026-05-07 17:19 52.84334 4.02793 36103 ft 430 kts 298°
2026-05-07 17:19 52.87393 3.94287 36104 ft 430 kts 298°
2026-05-07 17:20 52.90451 3.85769 36110 ft 430 kts 298°
2026-05-07 17:20 52.93503 3.77241 36111 ft 430 kts 298°
2026-05-07 17:21 52.96552 3.68699 36114 ft 430 kts 298°
2026-05-07 17:21 52.99592 3.60145 36115 ft 430 kts 298°
2026-05-07 17:22 53.02624 3.51573 36112 ft 431 kts 298°
2026-05-07 17:22 53.05655 3.42988 36107 ft 431 kts 298°
2026-05-07 17:23 53.08680 3.34384 36103 ft 431 kts 297°
2026-05-07 17:23 53.10796 3.25165 36097 ft 426 kts 281°
2026-05-07 17:24 53.12072 3.15514 36093 ft 427 kts 281°
2026-05-07 17:24 53.13354 3.05855 36094 ft 427 kts 281°
2026-05-07 17:25 53.14626 2.96183 36097 ft 428 kts 281°
2026-05-07 17:25 53.15893 2.86496 36099 ft 428 kts 281°
2026-05-07 17:26 53.17149 2.76793 36100 ft 428 kts 281°
2026-05-07 17:26 53.18399 2.67084 36099 ft 429 kts 281°
2026-05-07 17:27 53.19641 2.57364 36099 ft 429 kts 280°
2026-05-07 17:27 53.20873 2.47629 36099 ft 429 kts 280°
2026-05-07 17:28 53.22104 2.37890 36099 ft 429 kts 280°
2026-05-07 17:28 53.23327 2.28144 36101 ft 429 kts 280°
2026-05-07 17:29 53.24534 2.18382 36099 ft 429 kts 280°
2026-05-07 17:29 53.25739 2.08614 36098 ft 430 kts 280°
2026-05-07 17:30 53.26942 1.98841 36096 ft 430 kts 280°
2026-05-07 17:30 53.28118 1.89125 36097 ft 430 kts 279°
2026-05-07 17:31 53.29299 1.79334 36096 ft 430 kts 279°
2026-05-07 17:31 53.30470 1.69538 36096 ft 430 kts 279°
2026-05-07 17:32 53.31636 1.59735 36098 ft 430 kts 279°
2026-05-07 17:32 53.32610 1.51516 36090 ft 430 kts 279°
2026-05-07 17:33 53.34151 1.40173 36092 ft 431 kts 282°
2026-05-07 17:33 53.35628 1.30456 36088 ft 431 kts 282°
2026-05-07 17:34 53.37086 1.20721 36089 ft 431 kts 282°
2026-05-07 17:34 53.38483 1.10962 36085 ft 431 kts 281°
2026-05-07 17:35 53.39857 1.01185 36085 ft 431 kts 281°
2026-05-07 17:35 53.41233 0.91398 36077 ft 431 kts 281°
2026-05-07 17:36 53.42611 0.81606 36080 ft 432 kts 281°
2026-05-07 17:36 53.43984 0.71806 36078 ft 432 kts 281°
2026-05-07 17:37 53.45348 0.61987 36078 ft 432 kts 281°
2026-05-07 17:37 53.46701 0.52154 36071 ft 432 kts 281°
2026-05-07 17:38 53.48043 0.42311 36071 ft 433 kts 281°
2026-05-07 17:38 53.49383 0.32458 36066 ft 433 kts 281°
2026-05-07 17:39 53.50704 0.22656 36065 ft 433 kts 281°
2026-05-07 17:39 53.52034 0.12716 36057 ft 433 kts 281°
2026-05-07 17:40 53.53342 0.02891 36054 ft 434 kts 281°
2026-05-07 17:40 53.54664 -0.07123 36063 ft 441 kts 280°
2026-05-07 17:41 53.55985 -0.17183 36058 ft 445 kts 280°
2026-05-07 17:41 53.57307 -0.27361 36056 ft 446 kts 280°
2026-05-07 17:42 53.58630 -0.37547 36056 ft 445 kts 280°
2026-05-07 17:42 53.59945 -0.47735 36061 ft 445 kts 280°
2026-05-07 17:43 53.61251 -0.57926 36057 ft 445 kts 280°
2026-05-07 17:43 53.62538 -0.68116 36055 ft 445 kts 279°
2026-05-07 17:44 53.63823 -0.78322 36049 ft 445 kts 279°
2026-05-07 17:44 53.65087 -0.88531 36046 ft 445 kts 279°
2026-05-07 17:45 53.66133 -0.97033 35696 ft 446 kts 279°
2026-05-07 17:45 53.66765 -1.02149 35444 ft 445 kts 279°
2026-05-07 17:45 53.67395 -1.07242 34951 ft 442 kts 279°
2026-05-07 17:46 53.68020 -1.12305 34394 ft 440 kts 279°
2026-05-07 17:46 53.68638 -1.17359 33803 ft 439 kts 279°
2026-05-07 17:46 53.69245 -1.22388 33239 ft 436 kts 278°
2026-05-07 17:46 53.69846 -1.27375 32700 ft 432 kts 278°
2026-05-07 17:47 53.70447 -1.32325 32151 ft 429 kts 280°
2026-05-07 17:47 53.71353 -1.37122 31609 ft 430 kts 291°
2026-05-07 17:47 53.72784 -1.41545 31079 ft 430 kts 303°
2026-05-07 17:47 53.74695 -1.45432 30539 ft 430 kts 314°
2026-05-07 17:48 53.77015 -1.48615 29991 ft 430 kts 326°
2026-05-07 17:48 53.79560 -1.51232 29438 ft 427 kts 328°
2026-05-07 17:48 53.82094 -1.53808 28919 ft 423 kts 328°
2026-05-07 17:48 53.84600 -1.56368 28422 ft 419 kts 328°
2026-05-07 17:49 53.87084 -1.58917 27917 ft 416 kts 327°
2026-05-07 17:49 53.89543 -1.61451 27441 ft 412 kts 327°
2026-05-07 17:49 53.91981 -1.63965 26966 ft 408 kts 327°
2026-05-07 17:49 53.94396 -1.66453 26508 ft 405 kts 327°
2026-05-07 17:50 53.96796 -1.68927 26051 ft 402 kts 327°
2026-05-07 17:50 53.99172 -1.71380 25584 ft 399 kts 327°
2026-05-07 17:50 54.01540 -1.73827 25115 ft 397 kts 327°
2026-05-07 17:50 54.03896 -1.76263 24501 ft 398 kts 327°
2026-05-07 17:51 54.06273 -1.78720 23819 ft 402 kts 327°
2026-05-07 17:51 54.08645 -1.81175 23073 ft 395 kts 327°
2026-05-07 17:51 54.10998 -1.83497 22419 ft 388 kts 333°
2026-05-07 17:51 54.13517 -1.85035 21776 ft 382 kts 346°
2026-05-07 17:52 54.16129 -1.85614 21150 ft 377 kts 358°
2026-05-07 17:52 54.18684 -1.85263 20533 ft 371 kts 10°
2026-05-07 17:52 54.21204 -1.84460 19927 ft 366 kts 10°
2026-05-07 17:52 54.23711 -1.83674 19320 ft 368 kts
2026-05-07 17:53 54.26278 -1.82877 18701 ft 372 kts
2026-05-07 17:53 54.28840 -1.82084 18038 ft 376 kts
2026-05-07 17:53 54.31369 -1.81297 17395 ft 370 kts
2026-05-07 17:53 54.33867 -1.80512 16796 ft 359 kts
2026-05-07 17:54 54.36296 -1.79746 16207 ft 351 kts
2026-05-07 17:54 54.37114 -1.79489 16023 ft 349 kts
2026-05-07 17:54 54.39491 -1.78746 15433 ft 352 kts
2026-05-07 17:54 54.41918 -1.77982 14841 ft 356 kts
2026-05-07 17:55 54.44379 -1.77204 14244 ft 360 kts
2026-05-07 17:55 54.46854 -1.76423 13745 ft 361 kts
2026-05-07 17:55 54.49298 -1.75646 13309 ft 354 kts
2026-05-07 17:55 54.51704 -1.74876 12468 ft 350 kts
2026-05-07 17:56 54.54063 -1.74117 11872 ft 339 kts
2026-05-07 17:56 54.56341 -1.73386 11365 ft 328 kts
2026-05-07 17:56 54.58562 -1.72679 10867 ft 322 kts
2026-05-07 17:56 54.60751 -1.71979 10370 ft 318 kts
2026-05-07 17:57 54.62922 -1.71286 9945 ft 313 kts
2026-05-07 17:57 54.64326 -1.70835 9718 ft 307 kts
2026-05-07 17:57 54.67033 -1.69963 9513 ft 285 kts
2026-05-07 17:57 54.68933 -1.69339 9304 ft 273 kts 11°
2026-05-07 17:58 54.70708 -1.68254 8893 ft 270 kts 26°
2026-05-07 17:58 54.72328 -1.66667 8563 ft 266 kts 29°
2026-05-07 17:58 54.73925 -1.65072 8278 ft 265 kts 29°
2026-05-07 17:58 54.75493 -1.63507 7987 ft 263 kts 29°
2026-05-07 17:59 54.77069 -1.61933 7713 ft 259 kts 29°
2026-05-07 17:59 54.78601 -1.60401 7599 ft 252 kts 29°
2026-05-07 17:59 54.80180 -1.58820 7462 ft 268 kts 29°
2026-05-07 17:59 54.81801 -1.57196 7182 ft 269 kts 29°
2026-05-07 18:00 54.83417 -1.55577 6899 ft 268 kts 29°
2026-05-07 18:00 54.85027 -1.53964 6624 ft 266 kts 29°
2026-05-07 18:00 54.86612 -1.52376 6350 ft 261 kts 29°
2026-05-07 18:00 54.88169 -1.50812 6073 ft 256 kts 29°
2026-05-07 18:01 54.89703 -1.49267 5773 ft 254 kts 29°
2026-05-07 18:01 54.91228 -1.47732 5485 ft 253 kts 29°
2026-05-07 18:01 54.92747 -1.46203 5198 ft 252 kts 30°
2026-05-07 18:01 54.94259 -1.44681 4943 ft 250 kts 30°
2026-05-07 18:02 54.97238 -1.41671 4255 ft 249 kts 30°
2026-05-07 18:02 54.98729 -1.40163 3795 ft 246 kts 30°
2026-05-07 18:02 55.00184 -1.38694 3569 ft 235 kts 30°
2026-05-07 18:03 55.01643 -1.37608 3512 ft 222 kts
2026-05-07 18:03 55.03114 -1.37610 3464 ft 204 kts 345°
2026-05-07 18:03 55.04377 -1.38509 3282 ft 190 kts 322°
2026-05-07 18:03 55.05446 -1.39816 3127 ft 186 kts 320°
2026-05-07 18:04 55.06501 -1.41103 2983 ft 184 kts 320°
2026-05-07 18:04 55.07550 -1.42380 2838 ft 183 kts 320°
2026-05-07 18:04 55.08453 -1.43876 2689 ft 174 kts 300°
2026-05-07 18:04 55.08977 -1.45696 2557 ft 164 kts 280°
2026-05-07 18:05 55.09127 -1.47629 2417 ft 159 kts 262°
2026-05-07 18:05 55.08924 -1.49488 2277 ft 154 kts 245°
2026-05-07 18:05 55.08490 -1.51183 2203 ft 153 kts 242°
2026-05-07 18:05 55.08052 -1.52851 2075 ft 145 kts 240°
2026-05-07 18:06 55.07650 -1.54381 1928 ft 133 kts 241°
2026-05-07 18:06 55.07269 -1.55824 1771 ft 132 kts 242°
2026-05-07 18:06 55.06885 -1.57276 1576 ft 132 kts 241°
2026-05-07 18:06 55.06502 -1.58721 1392 ft 131 kts 241°
2026-05-07 18:07 55.06125 -1.60157 1206 ft 130 kts 239°
2026-05-07 18:07 55.05744 -1.61596 1006 ft 130 kts 243°
2026-05-07 18:07 55.05363 -1.63044 798 ft 134 kts 239°
2026-05-07 18:07 55.04973 -1.64526 633 ft 134 kts 241°
2026-05-07 18:08 55.04585 -1.66000 437 ft 133 kts 240°
2026-05-07 18:08 55.04197 -1.67464 280 ft 133 kts 240°
2026-05-07 18:08 55.03832 -1.68825 253 ft 109 kts 244°
2026-05-07 18:08 55.03615 -1.69636 262 ft 31 kts 245°
2026-05-07 18:09 55.03578 -1.69836 262 ft 21 kts 272°
2026-05-07 18:09 55.03589 -1.70072 258 ft 20 kts 273°
2026-05-07 18:09 55.03592 -1.70142 257 ft 0 kts 274°
2026-05-07 18:10 55.03592 -1.70143 257 ft 1 kts 274°
2026-05-07 18:10 55.03594 -1.70194 258 ft 7 kts 274°
2026-05-07 18:10 55.03599 -1.70312 258 ft 12 kts 274°
2026-05-07 18:11 55.03622 -1.70432 259 ft 10 kts 326°
2026-05-07 18:11 55.03665 -1.70437 259 ft 9 kts
2026-05-07 18:11 55.03749 -1.70428 258 ft 9 kts
2026-05-07 18:11 55.03794 -1.70474 258 ft 7 kts 296°
2026-05-07 18:12 55.03801 -1.70549 259 ft 5 kts 274°
2026-05-07 18:12 55.03803 -1.70600 259 ft 3 kts 274°
2026-05-07 18:12 55.03804 -1.70633 259 ft 3 kts 274°
2026-05-07 18:12 55.03788 -1.70666 260 ft 6 kts 199°
2026-05-07 18:13 55.03746 -1.70670 260 ft 3 kts 184°
2026-05-07 18:13 55.03730 -1.70672 260 ft 0 kts 184°